Meteo Giornale » Osservazioni meteo Germania » Saarbruecken-Ensheim

ore: 21:20 - Osservazioni Meteo Saarbruecken-Ensheim
Lat. 49° 13' N Lon. 7° 7' E Alt. 322 metri s.l.m.

sereno Europe/Berlin

13 °C

Sereno

Temp. 24 Ore

9 °C

20 °C

Nord-Est

7.4 Km/h

Dew point 11 °C

Umidità 87 %

Visibilità  10 Km

Il sole sorge alle ore 07:09

Il sole tramonta alle ore 19:42

Data e Ora Cielo e Fenomeni T °C DP °C Um. % Pres. hPa Vis. km Vento km/h
Oggi h: 21:20 sereno Sereno 13 11 87 1016 10 NE 7.4
Oggi h: 20:50 sereno Sereno 14 12 87 1016 10 N 5.5
Oggi h: 20:20 poco_nuvoloso Poco Nuvoloso 14 12 87 1015 10 N 3.7
Oggi h: 19:50 poco_nuvoloso Poco Nuvoloso 15 12 82 1015 10 N 5.5
Oggi h: 19:20 poco_nuvoloso Poco Nuvoloso 17 12 72 1015 10 N 5.5
Oggi h: 18:20 poco_nuvoloso Poco Nuvoloso 18 12 67 1015 10 E/NE 7.4
Oggi h: 17:50 poco_nuvoloso Poco Nuvoloso 18 12 67 1016 10 NE 9.3
Oggi h: 17:20 poco_nuvoloso Poco Nuvoloso 19 12 63 1016 10 NE 9.3
Oggi h: 16:50 poco_nuvoloso Poco Nuvoloso 20 11 56 1016 10 NE 11.1
Oggi h: 16:20 poco_nuvoloso Poco Nuvoloso 20 11 56 1016 10 NE 9.3
Oggi h: 15:50 poco_nuvoloso Poco Nuvoloso 20 11 56 1016 10 N/NE 7.4
Oggi h: 15:20 poco_nuvoloso Poco Nuvoloso 20 11 56 1016 10 N 5.5
Oggi h: 14:50 poco_nuvoloso Poco Nuvoloso 20 11 56 1016 10 N 7.4
Oggi h: 14:20 poco_nuvoloso Poco Nuvoloso 19 11 59 1016 10 N 3.7
Oggi h: 13:50 poco_nuvoloso Poco Nuvoloso 19 10 55 1017 10 E 9.3
Oggi h: 13:20 poco_nuvoloso Poco Nuvoloso 19 11 59 1017 10 NE 11.1
Oggi h: 12:50 poco_nuvoloso Poco Nuvoloso 19 11 59 1017 10 N 9.3
Oggi h: 12:20 poco_nuvoloso Poco Nuvoloso 18 11 63 1017 10 N 5.5
Oggi h: 11:50 poco_nuvoloso Poco Nuvoloso 18 12 67 1017 10 E/NE 7.4
Oggi h: 11:20 poco_nuvoloso Poco Nuvoloso 17 12 72 1017 10 N 5.5
Oggi h: 10:50 sereno Sereno 16 13 82 1017 10 N 3.7
Oggi h: 10:20 sereno Sereno 15 13 87 1017 10 N 1.8
Oggi h: 09:50 sereno Sereno 13 12 93 1017 10 N 3.7
Oggi h: 09:20 sereno Sereno 13 12 93 1017 10 N 1.8
Oggi h: 08:50 sereno Sereno 12 11 93 1017 10 N 1.8
Oggi h: 08:20 sereno Sereno 11 11 100 1017 10 N 1.8
Oggi h: 07:50 sereno Sereno 10 10 100 1017 10 N 1.8
Oggi h: 07:20 nebbia Banco di Nebbia 10 10 100 1017 7 N 3.7
Oggi h: 06:50 nebbia Banco di Nebbia Foschia 9 9 100 1017 2 N 3.7
Oggi h: 06:20 nebbia Nebbia 9 8 93 1017 0.9 N 1.8
Oggi h: 05:50 nebbia Nebbia 9 9 100 1017 0.9 N 1.8
Oggi h: 05:20 nebbia Nebbia 9 9 100 1017 0.8 N 1.8
Oggi h: 04:50 nebbia Nebbia 9 9 100 1018 0.9 N 0
Oggi h: 04:20 nebbia Banco di Nebbia Foschia 10 9 93 1018 2 N 1.8
Oggi h: 03:50 nebbia Banco di Nebbia Foschia 10 10 100 1018 3 N 0
Oggi h: 03:20 nebbia Banco di Nebbia 10 10 100 1018 8 N 1.8
Oggi h: 02:50 sereno Sereno 10 10 100 1018 10 N 1.8
Oggi h: 02:20 sereno Sereno 11 10 93 1018 10 N 0
Oggi h: 01:50 sereno Sereno 11 11 100 1018 10 N 1.8
Oggi h: 01:20 sereno Sereno 11 10 93 1019 10 N 1.8
Oggi h: 00:50 sereno Sereno 12 11 93 1019 10 N 0
Oggi h: 00:20 sereno Sereno 13 12 93 1019 10 N 0
Ieri h: 23:50 sereno Sereno 13 12 93 1018 10 N 1.8
Ieri h: 23:20 molto_nuvoloso Molto Nuvoloso 14 12 87 1018 10 N 1.8
Ieri h: 22:50 molto_nuvoloso Molto Nuvoloso 14 12 87 1018 10 N 1.8